Date,TemperatureHighF,TemperatureAvgF,TemperatureLowF,DewpointHighF,DewpointAvgF,DewpointLowF,HumidityHigh,HumidityAvg,HumidityLow,PressureMaxIn,PressureMinIn,WindSpeedMaxMPH,WindSpeedAvgMPH,GustSpeedMaxMPH,PrecipitationSumIn
2013-1-1,41,40,37,-100,-100,-100,0,0,100,0.00,40.00,0,-999,0,0.00
2013-1-2,36,34,29,-100,-100,-100,0,0,100,0.00,40.00,0,-999,0,0.00
2013-1-3,43,33,25,-100,-100,-100,0,0,100,0.00,40.00,0,-999,0,0.00
2013-1-4,46,35,25,-100,-100,-100,0,0,100,0.00,40.00,0,-999,0,0.00
2013-1-5,47,38,30,-100,-100,-100,0,0,100,0.00,40.00,0,-999,0,0.00
2013-1-6,54,35,26,-100,-100,-100,0,0,100,0.00,40.00,0,-999,0,0.00
2013-1-7,48,33,21,-100,-100,-100,0,0,100,0.00,40.00,0,-999,0,0.00
2013-1-8,47,39,28,-100,-100,-100,0,0,100,0.00,40.00,0,-999,0,0.00
2013-1-9,50,48,45,-100,-100,-100,0,0,100,0.00,40.00,0,-999,0,0.00
2013-1-10,61,54,47,-100,-100,-100,0,0,100,0.00,40.00,0,-999,0,0.00
2013-1-11,64,48,36,-100,-100,-100,0,0,100,0.00,40.00,0,-999,0,0.00
2013-1-12,69,61,53,-100,-100,-100,0,0,100,0.00,40.00,0,-999,0,0.00
2013-1-13,43,37,28,-100,-100,-100,0,0,100,0.00,40.00,0,-999,0,0.00
2013-1-14,36,28,24,-100,-100,-100,0,0,100,0.00,40.00,0,-999,0,0.00
2013-1-15,30,26,25,-100,-100,-100,0,0,100,0.00,40.00,0,-999,0,0.00
2013-1-16,43,33,25,-100,-100,-100,0,0,100,0.00,40.00,0,-999,0,0.00
2013-1-17,55,37,23,-100,-100,-100,0,0,100,0.00,40.00,0,-999,0,0.00
2013-1-18,53,35,21,-100,-100,-100,0,0,100,0.00,40.00,0,-999,0,0.00
2013-1-19,58,34,23,-100,-100,-100,0,0,100,0.00,40.00,0,-999,0,0.00
2013-1-20,61,40,25,-100,-100,-100,0,0,100,0.00,40.00,0,-999,0,0.00
2013-1-21,47,37,29,-100,-100,-100,0,0,100,0.00,40.00,0,-999,0,0.00
2013-1-22,45,32,22,-100,-100,-100,0,0,100,0.00,40.00,0,-999,0,0.00
2013-1-23,64,43,32,-100,-100,-100,0,0,100,0.00,40.00,0,-999,0,0.00
2013-1-24,44,41,37,-100,-100,-100,0,0,100,0.00,40.00,0,-999,0,0.00
2013-1-25,46,38,33,-100,-100,-100,0,0,100,0.00,40.00,0,-999,0,0.00
2013-1-26,40,38,32,-100,-100,-100,0,0,100,0.00,40.00,0,-999,0,0.00
2013-1-27,59,48,39,-100,-100,-100,0,0,100,0.00,40.00,0,-999,0,0.00
2013-1-28,70,63,55,-100,-100,-100,0,0,100,0.00,40.00,0,-999,0,0.00
2013-1-29,69,63,53,-100,-100,-100,0,0,100,0.00,40.00,0,-999,0,0.00
2013-1-30,51,41,28,-100,-100,-100,0,0,100,0.00,40.00,0,-999,0,0.00
2013-1-31,58,46,23,-100,-100,-100,0,0,100,0.00,40.00,0,-999,0,0.00
2013-2-1,43,34,26,-100,-100,-100,0,0,100,0.00,40.00,0,-999,0,0.00
2013-2-2,62,45,25,-100,-100,-100,0,0,100,0.00,40.00,0,-999,0,0.00
2013-2-3,61,44,26,-100,-100,-100,0,0,100,0.00,40.00,0,-999,0,0.00
2013-2-4,47,44,38,-100,-100,-100,0,0,100,0.00,40.00,0,-999,0,0.00
2013-2-5,61,48,37,-100,-100,-100,0,0,100,0.00,40.00,0,-999,0,0.00
2013-2-6,52,46,33,-100,-100,-100,0,0,100,0.00,40.00,0,-999,0,0.00
2013-2-7,62,52,44,-100,-100,-100,0,0,100,0.00,40.00,0,-999,0,0.00
2013-2-8,56,48,36,-100,-100,-100,0,0,100,0.00,40.00,0,-999,0,0.00
2013-2-9,46,37,31,-100,-100,-100,0,0,100,0.00,40.00,0,-999,0,0.00
2013-2-10,66,53,44,-100,-100,-100,0,0,100,0.00,40.00,0,-999,0,0.00
2013-2-11,54,45,40,-100,-100,-100,0,0,100,0.00,40.00,0,-999,0,0.00
2013-2-12,43,39,36,-100,-100,-100,0,0,100,0.00,40.00,0,-999,0,0.00
2013-2-13,49,40,32,-100,-100,-100,0,0,100,0.00,40.00,0,-999,0,0.00
2013-2-14,61,39,26,-100,-100,-100,0,0,100,0.00,40.00,0,-999,0,0.00
2013-2-15,52,43,31,-100,-100,-100,0,0,100,0.00,40.00,0,-999,0,0.00
2013-2-16,45,35,25,-100,-100,-100,0,0,100,0.00,40.00,0,-999,0,0.00
2013-2-17,64,43,21,-100,-100,-100,0,0,100,0.00,40.00,0,-999,0,0.00
2013-2-18,63,53,41,-100,-100,-100,0,0,100,0.00,40.00,0,-999,0,0.00
2013-2-19,55,40,28,-100,-100,-100,0,0,100,0.00,40.00,0,-999,0,0.00
2013-2-20,36,32,29,-100,-100,-100,0,0,100,0.00,40.00,0,-999,0,0.00
2013-2-21,35,32,29,-100,-100,-100,0,0,100,0.00,40.00,0,-999,0,0.00
2013-2-22,49,39,32,-100,-100,-100,0,0,100,0.00,40.00,0,-999,0,0.00
2013-2-23,52,35,25,-100,-100,-100,0,0,100,0.00,40.00,0,-999,0,0.00
2013-2-24,60,41,25,-100,-100,-100,0,0,100,0.00,40.00,0,-999,0,0.00
2013-2-25,49,43,38,-100,-100,-100,0,0,100,0.00,40.00,0,-999,0,0.00
2013-2-26,44,38,28,-100,-100,-100,0,0,100,0.00,40.00,0,-999,0,0.00
2013-2-27,51,33,24,-100,-100,-100,0,0,100,0.00,40.00,0,-999,0,0.00
2013-2-28,54,37,25,-100,-100,-100,0,0,100,0.00,40.00,0,-999,0,0.00
2013-3-1,46,34,25,-100,-100,-100,0,0,100,0.00,40.00,0,-999,0,0.00
2013-3-2,45,34,25,-100,-100,-100,0,0,100,0.00,40.00,0,-999,0,0.00
2013-3-3,57,39,19,-100,-100,-100,0,0,100,0.00,40.00,0,-999,0,0.00
2013-3-4,73,52,38,-100,-100,-100,0,0,100,0.00,40.00,0,-999,0,0.00
2013-3-5,56,46,29,-100,-100,-100,0,0,100,0.00,40.00,0,-999,0,0.00
2013-3-6,55,37,25,-100,-100,-100,0,0,100,0.00,40.00,0,-999,0,0.00
2013-3-7,60,45,31,-100,-100,-100,0,0,100,0.00,40.00,0,-999,0,0.00
2013-3-8,63,48,31,-100,-100,-100,0,0,100,0.00,40.00,0,-999,0,0.00
2013-3-9,69,58,43,-100,-100,-100,0,0,100,0.00,40.00,0,-999,0,0.00
2013-3-10,62,53,43,-100,-100,-100,0,0,100,0.00,40.00,0,-999,0,0.00
2013-3-11,52,40,30,-100,-100,-100,0,0,100,0.00,40.00,0,-999,0,0.00
2013-3-12,63,42,24,-100,-100,-100,0,0,100,0.00,40.00,0,-999,0,0.00
2013-3-13,62,47,29,-100,-100,-100,0,0,100,0.00,40.00,0,-999,0,0.00
2013-3-14,69,43,25,-100,-100,-100,0,0,100,0.00,40.00,0,-999,0,0.00
2013-3-15,78,55,38,-100,-100,-100,0,0,100,0.00,40.00,0,-999,0,0.00
2013-3-16,79,64,49,-100,-100,-100,0,0,100,0.00,40.00,0,-999,0,0.00
2013-3-17,73,61,54,-100,-100,-100,0,0,100,0.00,40.00,0,-999,0,0.00
2013-3-18,63,53,43,-100,-100,-100,0,0,100,0.00,40.00,0,-999,0,0.00
2013-3-19,59,47,32,-100,-100,-100,0,0,100,0.00,40.00,0,-999,0,0.00
2013-3-20,62,47,30,-100,-100,-100,0,0,100,0.00,40.00,0,-999,0,0.00
2013-3-21,50,38,31,-100,-100,-100,0,0,100,0.00,40.00,0,-999,0,0.00
2013-3-22,42,39,36,-100,-100,-100,0,0,100,0.00,40.00,0,-999,0,0.00
2013-3-23,45,42,40,-100,-100,-100,0,0,100,0.00,40.00,0,-999,0,0.00
2013-3-24,44,40,32,-100,-100,-100,0,0,100,0.00,40.00,0,-999,0,0.00
2013-3-25,47,35,25,-100,-100,-100,0,0,100,0.00,40.00,0,-999,0,0.00
2013-3-26,50,34,21,-100,-100,-100,0,0,100,0.00,40.00,0,-999,0,0.00
2013-3-27,62,40,21,-100,-100,-100,0,0,100,0.00,40.00,0,-999,0,0.00
2013-3-28,72,50,32,-100,-100,-100,0,0,100,0.00,40.00,0,-999,0,0.00
2013-3-29,72,60,50,-100,-100,-100,0,0,100,0.00,40.00,0,-999,0,0.00
2013-3-30,64,56,52,-100,-100,-100,0,0,100,0.00,40.00,0,-999,0,0.00
2013-3-31,62,56,51,-100,-100,-100,0,0,100,0.00,40.00,0,-999,0,0.00
2013-4-1,75,59,43,-100,-100,-100,0,0,100,0.00,40.00,0,-999,0,0.00
2013-4-2,53,48,38,-100,-100,-100,0,0,100,0.00,40.00,0,-999,0,0.00
2013-4-3,43,39,36,-100,-100,-100,0,0,100,0.00,40.00,0,-999,0,0.00
2013-4-4,43,41,38,-100,-100,-100,0,0,100,0.00,40.00,0,-999,0,0.00
2013-4-5,68,51,32,-100,-100,-100,0,0,100,0.00,40.00,0,-999,0,0.00
2013-4-6,76,57,37,-100,-100,-100,0,0,100,0.00,40.00,0,-999,0,0.00
2013-4-7,73,64,54,-100,-100,-100,0,0,100,0.00,40.00,0,-999,0,0.00
2013-4-8,81,66,58,-100,-100,-100,0,0,100,0.00,40.00,0,-999,0,0.00
2013-4-9,85,70,59,-100,-100,-100,0,0,100,0.00,40.00,0,-999,0,0.00
2013-4-10,78,65,44,-100,-100,-100,0,0,100,0.00,40.00,0,-999,0,0.00
2013-4-11,60,45,39,-100,-100,-100,0,0,100,0.00,40.00,0,-999,0,0.00
2013-4-12,73,50,31,-100,-100,-100,0,0,100,0.00,40.00,0,-999,0,0.00
2013-4-13,76,59,40,-100,-100,-100,0,0,100,0.00,40.00,0,-999,0,0.00
2013-4-14,80,62,49,-100,-100,-100,0,0,100,0.00,40.00,0,-999,0,0.00
2013-4-15,83,67,54,-100,-100,-100,0,0,100,0.00,40.00,0,-999,0,0.00
2013-4-16,87,73,63,-100,-100,-100,0,0,100,0.00,40.00,0,-999,0,0.00
2013-4-17,87,75,66,-100,-100,-100,0,0,100,0.00,40.00,0,-999,0,0.00
2013-4-18,73,60,40,-100,-100,-100,0,0,100,0.00,40.00,0,-999,0,0.00
2013-4-19,58,45,34,-100,-100,-100,0,0,100,0.00,40.00,0,-999,0,0.00
2013-4-20,69,52,29,-100,-100,-100,0,0,100,0.00,40.00,0,-999,0,0.00
2013-4-21,69,54,37,-100,-100,-100,0,0,100,0.00,40.00,0,-999,0,0.00
2013-4-22,77,54,35,-100,-100,-100,0,0,100,0.00,40.00,0,-999,0,0.00
2013-4-23,76,60,44,-100,-100,-100,0,0,100,0.00,40.00,0,-999,0,0.00
2013-4-24,59,46,38,-100,-100,-100,0,0,100,0.00,40.00,0,-999,0,0.00
2013-4-25,69,50,30,-100,-100,-100,0,0,100,0.00,40.00,0,-999,0,0.00
2013-4-26,58,51,43,-100,-100,-100,0,0,100,0.00,40.00,0,-999,0,0.00
2013-4-27,76,61,53,-100,-100,-100,0,0,100,0.00,40.00,0,-999,0,0.00
2013-4-28,75,60,43,-100,-100,-100,0,0,100,0.00,40.00,0,-999,0,0.00
2013-4-29,85,62,44,-100,-100,-100,0,0,100,0.00,40.00,0,-999,0,0.00
2013-4-30,83,68,49,-100,-100,-100,0,0,100,0.00,40.00,0,-999,0,0.00
2013-5-1,68,62,57,-100,-100,-100,0,0,100,0.00,40.00,0,-999,0,0.00
2013-5-2,64,58,46,-100,-100,-100,0,0,100,0.00,40.00,0,-999,0,0.00
2013-5-3,57,43,36,-100,-100,-100,0,0,100,0.00,40.00,0,-999,0,0.00
2013-5-4,58,42,29,-100,-100,-100,0,0,100,0.00,40.00,0,-999,0,0.00
2013-5-5,64,49,32,-100,-100,-100,0,0,100,0.00,40.00,0,-999,0,0.00
2013-5-6,75,57,41,-100,-100,-100,0,0,100,0.00,40.00,0,-999,0,0.00
2013-5-7,77,57,45,-100,-100,-100,0,0,100,0.00,40.00,0,-999,0,0.00
2013-5-8,85,66,47,-100,-100,-100,0,0,100,0.00,40.00,0,-999,0,0.00
2013-5-9,71,64,57,-100,-100,-100,0,0,100,0.00,40.00,0,-999,0,0.00
2013-5-10,77,64,59,-100,-100,-100,0,0,100,0.00,40.00,0,-999,0,0.00
2013-5-11,74,62,51,-100,-100,-100,0,0,100,0.00,40.00,0,-999,0,0.00
2013-5-12,72,60,43,-100,-100,-100,0,0,100,0.00,40.00,0,-999,0,0.00
2013-5-13,80,60,40,-100,-100,-100,0,0,100,0.00,40.00,0,-999,0,0.00
2013-5-14,86,68,49,-100,-100,-100,0,0,100,0.00,40.00,0,-999,0,0.00
2013-5-15,77,65,51,-100,-100,-100,0,0,100,0.00,40.00,0,-999,0,0.00
2013-5-16,68,62,58,-100,-100,-100,0,0,100,0.00,40.00,0,-999,0,0.00
2013-5-17,78,69,64,-100,-100,-100,0,0,100,0.00,40.00,0,-999,0,0.00
2013-5-18,87,71,66,-100,-100,-100,0,0,100,0.00,40.00,0,-999,0,0.00
2013-5-19,87,73,62,-100,-100,-100,0,0,100,0.00,40.00,0,-999,0,0.00
2013-5-20,84,73,66,-100,-100,-100,0,0,100,0.00,40.00,0,-999,0,0.00
2013-5-21,70,64,58,-100,-100,-100,0,0,100,0.00,40.00,0,-999,0,0.00
2013-5-22,79,66,59,-100,-100,-100,0,0,100,0.00,40.00,0,-999,0,0.00
2013-5-23,81,64,52,-100,-100,-100,0,0,100,0.00,40.00,0,-999,0,0.00
2013-5-24,76,67,60,-100,-100,-100,0,0,100,0.00,40.00,0,-999,0,0.00
2013-5-25,82,68,58,-100,-100,-100,0,0,100,0.00,40.00,0,-999,0,0.00
2013-5-26,84,71,63,-100,-100,-100,0,0,100,0.00,40.00,0,-999,0,0.00
2013-5-27,83,72,62,-100,-100,-100,0,0,100,0.00,40.00,0,-999,0,0.00
2013-5-28,88,74,63,-100,-100,-100,0,0,100,0.00,40.00,0,-999,0,0.00
2013-5-29,83,72,65,-100,-100,-100,0,0,100,0.00,40.00,0,-999,0,0.00
2013-5-30,78,71,68,-100,-100,-100,0,0,100,0.00,40.00,0,-999,0,0.00
2013-5-31,87,76,70,-100,-100,-100,0,0,100,0.00,40.00,0,-999,0,0.00
2013-6-1,75,69,65,-100,-100,-100,0,0,100,0.00,40.00,0,-999,0,0.00
2013-6-2,77,67,62,-100,-100,-100,0,0,100,0.00,40.00,0,-999,0,0.00
2013-6-3,79,65,57,-100,-100,-100,0,0,100,0.00,40.00,0,-999,0,0.00
2013-6-4,80,66,55,-100,-100,-100,0,0,100,0.00,40.00,0,-999,0,0.00
2013-6-5,88,71,62,-100,-100,-100,0,0,100,0.00,40.00,0,-999,0,0.00
2013-6-6,73,68,64,-100,-100,-100,0,0,100,0.00,40.00,0,-999,0,0.00
2013-6-7,80,66,62,-100,-100,-100,0,0,100,0.00,40.00,0,-999,0,0.00
2013-6-8,83,66,54,-100,-100,-100,0,0,100,0.00,40.00,0,-999,0,0.00
2013-6-9,81,71,59,-100,-100,-100,0,0,100,0.00,40.00,0,-999,0,0.00
2013-6-10,91,79,60,-100,-100,-100,0,0,100,0.00,40.00,0,-999,0,0.00
2013-6-11,92,77,64,-100,-100,-100,0,0,100,0.00,40.00,0,-999,0,0.00
2013-6-12,91,81,67,-100,-100,-100,0,0,100,0.00,40.00,0,-999,0,0.00
2013-6-13,92,81,67,-100,-100,-100,0,0,100,0.00,40.00,0,-999,0,0.00
2013-6-14,87,78,69,-100,-100,-100,0,0,100,0.00,40.00,0,-999,0,0.00
2013-6-15,69,65,62,-100,-100,-100,0,0,100,0.00,40.00,0,-999,0,0.00
2013-6-18,81,74,67,-100,-100,-100,0,0,100,0.00,40.00,0,-999,0,0.00
2013-6-19,86,69,59,-100,-100,-100,0,0,100,0.00,40.00,0,-999,0,0.00
2013-6-20,87,69,63,-100,-100,-100,0,0,100,0.00,40.00,0,-999,0,0.00
2013-6-22,91,82,74,-100,-100,-100,0,0,100,0.00,40.00,0,-999,0,0.00
2013-6-23,91,77,69,-100,-100,-100,0,0,100,0.00,40.00,0,-999,0,0.00
2013-6-24,92,81,67,-100,-100,-100,0,0,100,0.00,40.00,0,-999,0,0.00
2013-6-25,91,80,70,-100,-100,-100,0,0,100,0.00,40.00,0,-999,0,0.00
2013-6-26,92,82,71,-100,-100,-100,0,0,100,0.00,40.00,0,-999,0,0.00
2013-6-27,94,81,69,-100,-100,-100,0,0,100,0.00,40.00,0,-999,0,0.00
2013-6-28,95,82,72,-100,-100,-100,0,0,100,0.00,40.00,0,-999,0,0.00
2013-6-29,91,81,66,-100,-100,-100,0,0,100,0.00,40.00,0,-999,0,0.00
2013-6-30,82,74,62,-100,-100,-100,0,0,100,0.00,40.00,0,-999,0,0.00
2013-7-1,84,71,58,-100,-100,-100,0,0,100,0.00,40.00,0,-999,0,0.00
2013-7-2,86,70,56,-100,-100,-100,0,0,100,0.00,40.00,0,-999,0,0.00
2013-7-3,84,70,58,-100,-100,-100,0,0,100,0.00,40.00,0,-999,0,0.00
2013-7-4,89,73,56,-100,-100,-100,0,0,100,0.00,40.00,0,-999,0,0.00
2013-7-5,88,70,56,-100,-100,-100,0,0,100,0.00,40.00,0,-999,0,0.00
2013-7-6,88,69,59,-100,-100,-100,0,0,100,0.00,40.00,0,-999,0,0.00
2013-7-7,93,79,63,-100,-100,-100,0,0,100,0.00,40.00,0,-999,0,0.00
2013-7-8,92,74,67,-100,-100,-100,0,0,100,0.00,40.00,0,-999,0,0.00
2013-7-9,94,78,69,-100,-100,-100,0,0,100,0.00,40.00,0,-999,0,0.00
2013-7-10,97,85,68,-100,-100,-100,0,0,100,0.00,40.00,0,-999,0,0.00
2013-7-11,89,71,66,-100,-100,-100,0,0,100,0.00,40.00,0,-999,0,0.00
2013-7-12,87,73,63,-100,-100,-100,0,0,100,0.00,40.00,0,-999,0,0.00
2013-7-13,85,70,56,-100,-100,-100,0,0,100,0.00,40.00,0,-999,0,0.00
2013-7-14,82,70,62,-100,-100,-100,0,0,100,0.00,40.00,0,-999,0,0.00
2013-7-15,87,71,64,-100,-100,-100,0,0,100,0.00,40.00,0,-999,0,0.00
2013-7-16,87,76,68,-100,-100,-100,0,0,100,0.00,40.00,0,-999,0,0.00
2013-7-17,90,78,68,-100,-100,-100,0,0,100,0.00,40.00,0,-999,0,0.00
2013-7-18,94,81,67,-100,-100,-100,0,0,100,0.00,40.00,0,-999,0,0.00
2013-7-19,88,72,66,-100,-100,-100,0,0,100,0.00,40.00,0,-999,0,0.00
2013-7-20,90,76,66,-100,-100,-100,0,0,100,0.00,40.00,0,-999,0,0.00
2013-7-21,87,75,67,-100,-100,-100,0,0,100,0.00,40.00,0,-999,0,0.00
2013-7-22,91,80,71,-100,-100,-100,0,0,100,0.00,40.00,0,-999,0,0.00
2013-7-23,95,77,69,-100,-100,-100,0,0,100,0.00,40.00,0,-999,0,0.00
2013-7-24,82,71,66,-100,-100,-100,0,0,100,0.00,40.00,0,-999,0,0.00
2013-7-25,85,74,65,-100,-100,-100,0,0,100,0.00,40.00,0,-999,0,0.00
2013-7-26,70,66,63,-100,-100,-100,0,0,100,0.00,40.00,0,-999,0,0.00
2013-7-27,81,69,62,-100,-100,-100,0,0,100,0.00,40.00,0,-999,0,0.00
2013-7-28,85,71,62,-100,-100,-100,0,0,100,0.00,40.00,0,-999,0,0.00
2013-7-29,88,72,66,-100,-100,-100,0,0,100,0.00,40.00,0,-999,0,0.00
2013-7-30,83,74,71,-100,-100,-100,0,0,100,0.00,40.00,0,-999,0,0.00
2013-7-31,87,76,71,-100,-100,-100,0,0,100,0.00,40.00,0,-999,0,0.00
2013-8-1,88,76,67,-100,-100,-100,0,0,100,0.00,40.00,0,-999,0,0.00
2013-8-2,93,79,67,-100,-100,-100,0,0,100,0.00,40.00,0,-999,0,0.00
2013-8-3,89,79,71,-100,-100,-100,0,0,100,0.00,40.00,0,-999,0,0.00
2013-8-4,94,80,70,-100,-100,-100,0,0,100,0.00,40.00,0,-999,0,0.00
2013-8-5,94,80,72,-100,-100,-100,0,0,100,0.00,40.00,0,-999,0,0.00
2013-8-6,96,81,71,-100,-100,-100,0,0,100,0.00,40.00,0,-999,0,0.00
2013-8-7,96,83,70,-100,-100,-100,0,0,100,0.00,40.00,0,-999,0,0.00
2013-8-8,96,79,69,-100,-100,-100,0,0,100,0.00,40.00,0,-999,0,0.00
2013-8-9,94,78,70,-100,-100,-100,0,0,100,0.00,40.00,0,-999,0,0.00
2013-8-10,97,79,70,-100,-100,-100,0,0,100,0.00,40.00,0,-999,0,0.00
2013-8-11,94,79,69,-100,-100,-100,0,0,100,0.00,40.00,0,-999,0,0.00
2013-8-12,93,77,70,-100,-100,-100,0,0,100,0.00,40.00,0,-999,0,0.00
2013-8-13,84,72,68,-100,-100,-100,0,0,100,0.00,40.00,0,-999,0,0.00
2013-8-14,80,72,65,-100,-100,-100,0,0,100,0.00,40.00,0,-999,0,0.00
2013-8-15,80,64,55,-100,-100,-100,0,0,100,0.00,40.00,0,-999,0,0.00
2013-8-16,73,62,54,-100,-100,-100,0,0,100,0.00,40.00,0,-999,0,0.00
2013-8-17,80,67,55,-100,-100,-100,0,0,100,0.00,40.00,0,-999,0,0.00
2013-8-18,84,70,61,-100,-100,-100,0,0,100,0.00,40.00,0,-999,0,0.00
2013-8-19,88,68,61,-100,-100,-100,0,0,100,0.00,40.00,0,-999,0,0.00
2013-8-20,91,71,62,-100,-100,-100,0,0,100,0.00,40.00,0,-999,0,0.00
2013-8-21,93,78,61,-100,-100,-100,0,0,100,0.00,40.00,0,-999,0,0.00
2013-8-22,94,76,66,-100,-100,-100,0,0,100,0.00,40.00,0,-999,0,0.00
2013-8-23,94,76,66,-100,-100,-100,0,0,100,0.00,40.00,0,-999,0,0.00
2013-8-24,89,76,67,-100,-100,-100,0,0,100,0.00,40.00,0,-999,0,0.00
2013-8-25,91,76,67,-100,-100,-100,0,0,100,0.00,40.00,0,-999,0,0.00
2013-8-26,89,75,65,-100,-100,-100,0,0,100,0.00,40.00,0,-999,0,0.00
2013-8-27,93,71,62,-100,-100,-100,0,0,100,0.00,40.00,0,-999,0,0.00
2013-8-28,94,92,76,-100,-100,-100,0,0,100,0.00,40.00,0,-999,0,0.00
2013-8-29,96,82,65,-100,-100,-100,0,0,100,0.00,40.00,0,-999,0,0.00
2013-8-30,95,79,64,-100,-100,-100,0,0,100,0.00,40.00,0,-999,0,0.00
2013-8-31,97,80,66,-100,-100,-100,0,0,100,0.00,40.00,0,-999,0,0.00
2013-9-1,95,85,69,-100,-100,-100,0,0,100,0.00,40.00,0,-999,0,0.00
2013-9-2,90,78,71,-100,-100,-100,0,0,100,0.00,40.00,0,-999,0,0.00
2013-9-3,90,76,70,-100,-100,-100,0,0,100,0.00,40.00,0,-999,0,0.00
2013-9-4,91,74,63,-100,-100,-100,0,0,100,0.00,40.00,0,-999,0,0.00
2013-9-5,91,74,58,-100,-100,-100,0,0,100,0.00,40.00,0,-999,0,0.00
2013-9-6,94,72,60,-100,-100,-100,0,0,100,0.00,40.00,0,-999,0,0.00
2013-9-7,98,75,63,-100,-100,-100,0,0,100,0.00,40.00,0,-999,0,0.00
2013-9-8,97,77,65,-100,-100,-100,0,0,100,0.00,40.00,0,-999,0,0.00
2013-9-9,98,76,65,-100,-100,-100,0,0,100,0.00,40.00,0,-999,0,0.00
2013-9-10,94,75,62,-100,-100,-100,0,0,100,0.00,40.00,0,-999,0,0.00
2013-9-11,92,76,66,-100,-100,-100,0,0,100,0.00,40.00,0,-999,0,0.00
2013-9-12,91,75,65,-100,-100,-100,0,0,100,0.00,40.00,0,-999,0,0.00
2013-9-13,87,75,67,-100,-100,-100,0,0,100,0.00,40.00,0,-999,0,0.00
2013-9-14,81,67,57,-100,-100,-100,0,0,100,0.00,40.00,0,-999,0,0.00
2013-9-15,87,61,48,-100,-100,-100,0,0,100,0.00,40.00,0,-999,0,0.00
2013-9-16,92,73,56,-100,-100,-100,0,0,100,0.00,40.00,0,-999,0,0.00
2013-9-17,90,74,65,-100,-100,-100,0,0,100,0.00,40.00,0,-999,0,0.00
2013-9-18,74,70,67,-100,-100,-100,0,0,100,0.00,40.00,0,-999,0,0.00
2013-9-19,91,82,69,-100,-100,-100,0,0,100,0.00,40.00,0,-999,0,0.00
2013-9-20,76,70,65,-100,-100,-100,0,0,100,0.00,40.00,0,-999,0,0.00
2013-9-21,75,64,54,-100,-100,-100,0,0,100,0.00,40.00,0,-999,0,0.00
2013-9-22,76,60,47,-100,-100,-100,0,0,100,0.00,40.00,0,-999,0,0.00
2013-9-23,79,61,49,-100,-100,-100,0,0,100,0.00,40.00,0,-999,0,0.00
2013-9-24,87,73,58,-100,-100,-100,0,0,100,0.00,40.00,0,-999,0,0.00
2013-9-25,81,63,54,-100,-100,-100,0,0,100,0.00,40.00,0,-999,0,0.00
2013-9-26,86,66,54,-100,-100,-100,0,0,100,0.00,40.00,0,-999,0,0.00
2013-9-27,86,66,56,-100,-100,-100,0,0,100,0.00,40.00,0,-999,0,0.00
2013-9-28,85,68,59,-100,-100,-100,0,0,100,0.00,40.00,0,-999,0,0.00
2013-9-29,76,70,67,-100,-100,-100,0,0,100,0.00,40.00,0,-999,0,0.00
2013-9-30,76,71,68,-100,-100,-100,0,0,100,0.00,40.00,0,-999,0,0.00
2013-10-1,72,71,69,-100,-100,-100,0,0,100,0.00,40.00,0,-999,0,0.00
2013-10-2,79,70,64,-100,-100,-100,0,0,100,0.00,40.00,0,-999,0,0.00
2013-10-3,83,72,64,-100,-100,-100,0,0,100,0.00,40.00,0,-999,0,0.00
2013-10-4,82,72,63,-100,-100,-100,0,0,100,0.00,40.00,0,-999,0,0.00
2013-10-5,76,69,56,-100,-100,-100,0,0,100,0.00,40.00,0,-999,0,0.00
2013-10-6,69,59,49,-100,-100,-100,0,0,100,0.00,40.00,0,-999,0,0.00
2013-10-7,71,55,43,-100,-100,-100,0,0,100,0.00,40.00,0,-999,0,0.00
2013-10-8,69,51,43,-100,-100,-100,0,0,100,0.00,40.00,0,-999,0,0.00
2013-10-9,73,50,40,-100,-100,-100,0,0,100,0.00,40.00,0,-999,0,0.00
2013-10-10,75,52,43,-100,-100,-100,0,0,100,0.00,40.00,0,-999,0,0.00
2013-10-11,80,62,50,-100,-100,-100,0,0,100,0.00,40.00,0,-999,0,0.00
2013-10-12,73,66,61,-100,-100,-100,0,0,100,0.00,40.00,0,-999,0,0.00
2013-10-13,73,67,62,-100,-100,-100,0,0,100,0.00,40.00,0,-999,0,0.00
2013-10-14,69,61,56,-100,-100,-100,0,0,100,0.00,40.00,0,-999,0,0.00
2013-10-15,73,64,61,-100,-100,-100,0,0,100,0.00,40.00,0,-999,0,0.00
2013-10-16,60,56,54,-100,-100,-100,0,0,100,0.00,40.00,0,-999,0,0.00
2013-10-17,66,54,47,-100,-100,-100,0,0,100,0.00,40.00,0,-999,0,0.00
2013-10-18,69,57,41,-100,-100,-100,0,0,100,0.00,40.00,0,-999,0,0.00
2013-10-19,60,52,40,-100,-100,-100,0,0,100,0.00,40.00,0,-999,0,0.00
2013-10-20,66,50,33,-100,-100,-100,0,0,100,0.00,40.00,0,-999,0,0.00
2013-10-21,66,53,40,-100,-100,-100,0,0,100,0.00,40.00,0,-999,0,0.00
2013-10-22,65,52,46,-100,-100,-100,0,0,100,0.00,40.00,0,-999,0,0.00
2013-10-23,65,47,40,-100,-100,-100,0,0,100,0.00,40.00,0,-999,0,0.00
2013-10-24,68,51,40,-100,-100,-100,0,0,100,0.00,40.00,0,-999,0,0.00
2013-10-25,54,42,36,-100,-100,-100,0,0,100,0.00,40.00,0,-999,0,0.00
2013-10-26,53,44,35,-100,-100,-100,0,0,100,0.00,40.00,0,-999,0,0.00
2013-10-27,62,54,48,-100,-100,-100,0,0,100,0.00,40.00,0,-999,0,0.00
2013-10-28,68,58,52,-100,-100,-100,0,0,100,0.00,40.00,0,-999,0,0.00
2013-10-29,76,63,54,-100,-100,-100,0,0,100,0.00,40.00,0,-999,0,0.00
2013-10-30,65,61,58,-100,-100,-100,0,0,100,0.00,40.00,0,-999,0,0.00
2013-10-31,72,65,54,-100,-100,-100,0,0,100,0.00,40.00,0,-999,0,0.00
2013-11-1,71,52,40,-100,-100,-100,0,0,100,0.00,40.00,0,-999,0,0.00
2013-11-2,60,50,40,-100,-100,-100,0,0,100,0.00,40.00,0,-999,0,0.00
2013-11-3,58,42,31,-100,-100,-100,0,0,100,0.00,40.00,0,-999,0,0.00
2013-11-4,56,50,43,-100,-100,-100,0,0,100,0.00,40.00,0,-999,0,0.00
2013-11-5,67,58,53,-100,-100,-100,0,0,100,0.00,40.00,0,-999,0,0.00
2013-11-6,63,56,38,-100,-100,-100,0,0,100,0.00,40.00,0,-999,0,0.00
2013-11-7,57,40,29,-100,-100,-100,0,0,100,0.00,40.00,0,-999,0,0.00
2013-11-8,62,41,31,-100,-100,-100,0,0,100,0.00,40.00,0,-999,0,0.00
2013-11-9,57,51,46,-100,-100,-100,0,0,100,0.00,40.00,0,-999,0,0.00
2013-11-10,63,53,45,-100,-100,-100,0,0,100,0.00,40.00,0,-999,0,0.00
2013-11-11,68,50,38,-100,-100,-100,0,0,100,0.00,40.00,0,-999,0,0.00
2013-11-12,51,44,28,-100,-100,-100,0,0,100,0.00,40.00,0,-999,0,0.00
2013-11-13,47,30,22,-100,-100,-100,0,0,100,0.00,40.00,0,-999,0,0.00
2013-11-14,55,36,19,-100,-100,-100,0,0,100,0.00,40.00,0,-999,0,0.00
2013-11-15,56,46,38,-100,-100,-100,0,0,100,0.00,40.00,0,-999,0,0.00
2013-11-16,66,59,52,-100,-100,-100,0,0,100,0.00,40.00,0,-999,0,0.00
2013-11-17,78,69,62,-100,-100,-100,0,0,100,0.00,40.00,0,-999,0,0.00
2013-11-18,63,54,41,-100,-100,-100,0,0,100,0.00,40.00,0,-999,0,0.00
2013-11-19,57,42,36,-100,-100,-100,0,0,100,0.00,40.00,0,-999,0,0.00
2013-11-20,60,43,34,-100,-100,-100,0,0,100,0.00,40.00,0,-999,0,0.00
2013-11-21,58,54,47,-100,-100,-100,0,0,100,0.00,40.00,0,-999,0,0.00
2013-11-22,59,50,38,-100,-100,-100,0,0,100,0.00,40.00,0,-999,0,0.00
2013-11-23,43,38,33,-100,-100,-100,0,0,100,0.00,40.00,0,-999,0,0.00
2013-11-24,34,29,25,-100,-100,-100,0,0,100,0.00,40.00,0,-999,0,0.00
2013-11-25,32,30,29,-100,-100,-100,0,0,100,0.00,40.00,0,-999,0,0.00
2013-11-26,40,35,32,-100,-100,-100,0,0,100,0.00,40.00,0,-999,0,0.00
2013-11-27,40,30,23,-100,-100,-100,0,0,100,0.00,40.00,0,-999,0,0.00
2013-11-28,47,30,20,-100,-100,-100,0,0,100,0.00,40.00,0,-999,0,0.00
2013-11-29,52,30,21,-100,-100,-100,0,0,100,0.00,40.00,0,-999,0,0.00
2013-11-30,57,36,24,-100,-100,-100,0,0,100,0.00,40.00,0,-999,0,0.00
2013-12-1,61,50,43,-100,-100,-100,0,0,100,0.00,40.00,0,-999,0,0.00
2013-12-2,63,52,43,-100,-100,-100,0,0,100,0.00,40.00,0,-999,0,0.00
2013-12-3,58,48,39,-100,-100,-100,0,0,100,0.00,40.00,0,-999,0,0.00
2013-12-4,73,61,50,-100,-100,-100,0,0,100,0.00,40.00,0,-999,0,0.00
2013-12-5,61,44,32,-100,-100,-100,0,0,100,0.00,40.00,0,-999,0,0.00
2013-12-6,32,29,25,-100,-100,-100,0,0,100,0.00,40.00,0,-999,0,0.00
2013-12-7,26,24,21,-100,-100,-100,0,0,100,0.00,40.00,0,-999,0,0.00
2013-12-8,31,25,21,-100,-100,-100,0,0,100,0.00,40.00,0,-999,0,0.00
2013-12-9,31,30,29,-100,-100,-100,0,0,100,0.00,40.00,0,-999,0,0.00
2013-12-10,38,27,23,-100,-100,-100,0,0,100,0.00,40.00,0,-999,0,0.00
2013-12-11,44,28,18,-100,-100,-100,0,0,100,0.00,40.00,0,-999,0,0.00
2013-12-12,43,29,22,-100,-100,-100,0,0,100,0.00,40.00,0,-999,0,0.00
2013-12-13,38,33,26,-100,-100,-100,0,0,100,0.00,40.00,0,-999,0,0.00
2013-12-14,43,38,34,-100,-100,-100,0,0,100,0.00,40.00,0,-999,0,0.00
2013-12-15,46,33,25,-100,-100,-100,0,0,100,0.00,40.00,0,-999,0,0.00
2013-12-16,58,32,25,-100,-100,-100,0,0,100,0.00,40.00,0,-999,0,0.00
2013-12-17,63,42,28,-100,-100,-100,0,0,100,0.00,40.00,0,-999,0,0.00
2013-12-18,63,42,30,-100,-100,-100,0,0,100,0.00,40.00,0,-999,0,0.00
2013-12-19,65,57,41,-100,-100,-100,0,0,100,0.00,40.00,0,-999,0,0.00
2013-12-20,69,63,59,-100,-100,-100,0,0,100,0.00,40.00,0,-999,0,0.00
2013-12-21,66,57,47,-100,-100,-100,0,0,100,0.00,40.00,0,-999,0,0.00
2013-12-22,51,41,32,-100,-100,-100,0,0,100,0.00,40.00,0,-999,0,0.00
2013-12-23,41,32,25,-100,-100,-100,0,0,100,0.00,40.00,0,-999,0,0.00
2013-12-24,41,28,23,-100,-100,-100,0,0,100,0.00,40.00,0,-999,0,0.00
2013-12-25,49,32,22,-100,-100,-100,0,0,100,0.00,40.00,0,-999,0,0.00
2013-12-26,45,31,25,-100,-100,-100,0,0,100,0.00,40.00,0,-999,0,0.00
2013-12-27,51,30,25,-100,-100,-100,0,0,100,0.00,40.00,0,-999,0,0.00
2013-12-28,48,36,30,-100,-100,-100,0,0,100,0.00,40.00,0,-999,0,0.00
2013-12-29,56,41,31,-100,-100,-100,0,0,100,0.00,40.00,0,-999,0,0.00
2013-12-30,36,32,25,-100,-100,-100,0,0,100,0.00,40.00,0,-999,0,0.00
2013-12-31,47,28,21,-100,-100,-100,0,0,100,0.00,40.00,0,-999,0,0.00
2014-1-1,54,33,21,-100,-100,-100,0,0,100,0.00,40.00,0,-999,0,0.00
2014-1-2,46,34,25,-100,-100,-100,0,0,100,0.00,40.00,0,-999,0,0.00